Change the Weather History Date:

Thursday, November 22, 2012

  Actual Average Record
Temperature  
Mean Temperature 58 °F -  
Max Temperature 66 °F - - ()
Min Temperature 51 °F - - ()
Degree Days  
Heating Degree Days 6    
Growing Degree Days 8 (Base 50)    
Moisture  
Dew Point 52 °F    
Average Humidity 80    
Maximum Humidity 94    
Minimum Humidity 58    
Precipitation  
Precipitation 0.00 in - - ()
Sea Level Pressure  
Sea Level Pressure 30.16 in    
Wind  
Wind Speed 1 mph ()    
Max Wind Speed 6 mph    
Max Gust Speed -    
Visibility 11.5 miles    
Events      
T = Trace of Precipitation, MM = Missing Value Source: Averaged Metar Reports

Daily Weather History Graph

Daily Weather History Graph

Search for Another Location

Airport or City:

Trip Planner

Search our weather history database for the weather conditions in past years. The results will help you decide how hot, cold, wet, or windy it might be!

Date:

Astronomy

Nov. 22, 2012 Rise Set
Actual Time 6:57 AM CET 4:23 PM CET
Civil Twilight 6:26 AM CET 4:55 PM CET
Nautical Twilight 5:51 AM CET 5:30 PM CET
Astronomical Twilight 5:16 AM CET 6:04 PM CET
Moon 1:09 PM CET (11/22) 12:50 AM CET (11/22)
Length of Visible Light 10h 29m
Length of Day
9h 26m
Waxing Gibbous, 69% of the Moon is Illuminated
Nov 22
Waxing Gibbous
Nov 28
Full
Dec 6
Last Quarter
Dec 13
New
Dec 20
First Quarter

Hourly Weather History & Observations

Time (CET) Temp. Dew Point Humidity Pressure Visibility Wind Dir Wind Speed Gust Speed Precip Events Conditions
12:00 AM 55.4 °F 50.0 °F 82% 30.12 in - Calm Calm - N/A   Clear
12:30 AM 55.4 °F 50.0 °F 82% 30.12 in - Variable 1.2 mph - N/A   Clear
1:00 AM 54 °F 49 °F 77% 30.14 in 12 mi Calm Calm - -   Partly Cloudy
1:00 AM 53.6 °F 48.2 °F 82% 30.12 in - Calm Calm - N/A   Clear
1:30 AM 53.6 °F 50.0 °F 88% 30.12 in - Variable 1.2 mph - N/A   Clear
2:00 AM 53.6 °F 50.0 °F 88% 30.12 in - Variable 2.3 mph - N/A   Clear
2:30 AM 53.6 °F 48.2 °F 82% 30.12 in - Calm Calm - N/A   Clear
3:00 AM 53.6 °F 48.2 °F 82% 30.12 in - Variable 3.5 mph - N/A   Clear
3:30 AM 51.8 °F 48.2 °F 88% 30.12 in - Variable 3.5 mph - N/A   Clear
4:00 AM 52 °F 48 °F 82% 30.14 in 12 mi North 4.5 mph - -   Mostly Cloudy
4:00 AM 51.8 °F 48.2 °F 88% 30.12 in - North 5.8 mph - N/A   Clear
4:30 AM 51.8 °F 48.2 °F 88% 30.12 in - Variable 1.2 mph - N/A   Clear
5:00 AM 53.6 °F 50.0 °F 88% 30.12 in - Variable 2.3 mph - N/A   Clear
5:30 AM 53.6 °F 50.0 °F 88% 30.15 in - Variable 1.2 mph - N/A   Clear
6:00 AM 53.6 °F 50.0 °F 88% 30.15 in - Calm Calm - N/A   Clear
6:30 AM 53.6 °F 51.8 °F 94% 30.15 in - Variable 1.2 mph - N/A   Clear
7:00 AM 54 °F 51 °F 86% 30.17 in 12 mi NNE 2.2 mph - -   Mostly Cloudy
7:00 AM 53.6 °F 51.8 °F 94% 30.15 in - Variable 2.3 mph - N/A   Clear
7:30 AM 55.4 °F 51.8 °F 88% 30.15 in - Calm Calm - N/A   Clear
8:00 AM 55.4 °F 51.8 °F 88% 30.18 in - Variable 1.2 mph - N/A   Clear
8:30 AM 55.4 °F 51.8 °F 88% 30.18 in - Variable 1.2 mph - N/A   Clear
9:00 AM 55.4 °F 53.6 °F 94% 30.18 in - Calm Calm - N/A   Clear
9:30 AM 57.2 °F 55.4 °F 94% 30.18 in - Calm Calm - N/A   Clear
10:00 AM 59 °F 55 °F 83% 30.21 in 12 mi Calm Calm - -   Mostly Cloudy
10:00 AM 59.0 °F 55.4 °F 88% 30.21 in - Calm Calm - N/A   Clear
10:30 AM 60.8 °F 55.4 °F 82% 30.21 in - Calm Calm - N/A   Clear
11:00 AM 60.8 °F 55.4 °F 82% 30.21 in - Calm Calm - N/A   Clear
11:30 AM 62.6 °F 53.6 °F 72% 30.18 in - Calm Calm - N/A   Clear
12:00 PM 62.6 °F 53.6 °F 72% 30.18 in - Calm Calm - N/A   Clear
12:30 PM 64.4 °F 53.6 °F 68% 30.18 in - Variable 1.2 mph - N/A   Clear
1:00 PM 64 °F 53 °F 58% 30.19 in 12 mi Calm Calm - -   Mostly Cloudy
1:00 PM 64.4 °F 53.6 °F 68% 30.18 in - Calm Calm - N/A   Clear
1:30 PM 64.4 °F 53.6 °F 68% 30.15 in - Calm Calm - N/A   Clear
2:00 PM 66.2 °F 53.6 °F 64% 30.15 in - Calm Calm - N/A   Clear
2:30 PM 64.4 °F 51.8 °F 64% 30.15 in - Calm Calm - N/A   Clear
3:00 PM 64.4 °F 53.6 °F 68% 30.15 in - Calm Calm - N/A   Clear
3:30 PM 62.6 °F 53.6 °F 72% 30.15 in - Calm Calm - N/A   Clear
4:00 PM 63 °F 53 °F 62% 30.18 in 19 mi SW 2.2 mph - -   Mostly Cloudy
4:00 PM 62.6 °F 53.6 °F 72% 30.18 in - Variable 2.3 mph - N/A   Clear
4:30 PM 62.6 °F 53.6 °F 72% 30.15 in - Calm Calm - N/A   Clear
5:00 PM 60.8 °F 55.4 °F 82% 30.18 in - Variable 2.3 mph - N/A   Clear
5:30 PM 59.0 °F 53.6 °F 82% 30.18 in - Variable 1.2 mph - N/A   Clear
6:00 PM 59.0 °F 53.6 °F 82% 30.18 in - Variable 2.3 mph - N/A   Clear
6:30 PM 59.0 °F 53.6 °F 82% 30.18 in - Variable 3.5 mph - N/A   Clear
7:00 PM 59 °F 54 °F 77% 30.19 in 1 mi NW 4.5 mph - -   Mostly Cloudy
7:00 PM 59.0 °F 53.6 °F 82% 30.18 in - NW 5.8 mph - N/A   Clear
7:30 PM 59.0 °F 53.6 °F 82% 30.18 in - North 4.6 mph - N/A   Clear
8:00 PM 59.0 °F 53.6 °F 82% 30.18 in - WNW 5.8 mph - N/A   Clear
8:30 PM 57.2 °F 53.6 °F 88% 30.18 in - Variable 2.3 mph - N/A   Clear
9:00 PM 57.2 °F 51.8 °F 82% 30.18 in - Variable 2.3 mph - N/A   Clear
9:30 PM 59.0 °F 50.0 °F 72% 30.18 in - NW 5.8 mph - N/A   Clear
10:00 PM 57 °F 50 °F 72% 30.19 in 12 mi NNW 2.2 mph - -   Mostly Cloudy
10:00 PM 57.2 °F 50.0 °F 77% 30.18 in - Variable 2.3 mph - N/A   Clear
10:30 PM 57.2 °F 50.0 °F 77% 30.18 in - Variable 2.3 mph - N/A   Clear
11:00 PM 55.4 °F 50.0 °F 82% 30.18 in - Variable 1.2 mph - N/A   Clear
11:30 PM 55.4 °F 50.0 °F 82% 30.18 in - Variable 2.3 mph - N/A   Clear